TimeEDT,TemperatureF,Dew PointF,Humidity,Sea Level PressureIn,VisibilityMPH,Wind Direction,Wind SpeedMPH,Gust SpeedMPH,PrecipitationIn,Events,Conditions,WindDirDegrees,DateUTC
12:15 AM,66.2,62.6,88,30.04,10.0,West,4.6,-,N/A,,Clear,260,2013-04-02 04:15:00
12:35 AM,66.2,64.4,94,30.04,10.0,WSW,5.8,-,N/A,,Clear,250,2013-04-02 04:35:00
12:55 AM,64.4,62.6,94,30.04,10.0,Calm,Calm,-,N/A,,Clear,0,2013-04-02 04:55:00
1:15 AM,62.6,62.6,100,30.04,10.0,Calm,Calm,-,N/A,,Clear,0,2013-04-02 05:15:00
1:35 AM,62.6,62.6,100,30.04,7.0,Calm,Calm,-,N/A,,Clear,0,2013-04-02 05:35:00
1:55 AM,62.6,62.6,100,30.03,7.0,WSW,4.6,-,N/A,,Clear,250,2013-04-02 05:55:00
2:15 AM,64.4,64.4,100,30.03,5.0,West,4.6,-,N/A,,Clear,260,2013-04-02 06:15:00
2:55 AM,64.4,62.6,94,30.03,4.0,West,3.5,-,N/A,,Clear,280,2013-04-02 06:55:00
3:15 AM,62.6,62.6,100,30.03,4.0,Calm,Calm,-,N/A,,Clear,0,2013-04-02 07:15:00
3:35 AM,62.6,62.6,100,30.02,1.5,Calm,Calm,-,N/A,,Scattered Clouds,0,2013-04-02 07:35:00
4:15 AM,62.6,62.6,100,30.02,0.2,Calm,Calm,-,N/A,,Overcast,0,2013-04-02 08:15:00
4:35 AM,62.6,62.6,100,30.02,0.2,Calm,Calm,-,N/A,,Overcast,0,2013-04-02 08:35:00
4:55 AM,62.6,62.6,100,30.02,0.2,Calm,Calm,-,N/A,,Overcast,0,2013-04-02 08:55:00
5:15 AM,62.6,62.6,100,30.02,0.2,WNW,3.5,-,N/A,,Overcast,300,2013-04-02 09:15:00
5:35 AM,62.6,62.6,100,30.02,0.5,NW,3.5,-,N/A,,Overcast,310,2013-04-02 09:35:00
5:55 AM,60.8,60.8,100,30.03,0.8,NW,3.5,-,N/A,,Overcast,320,2013-04-02 09:55:00
6:15 AM,60.8,60.8,100,30.03,0.2,NNW,4.6,-,N/A,,Overcast,330,2013-04-02 10:15:00
6:35 AM,60.8,60.8,100,30.04,0.5,Calm,Calm,-,N/A,,Overcast,0,2013-04-02 10:35:00
6:55 AM,60.8,60.8,100,30.04,0.8,Calm,Calm,-,N/A,,Overcast,0,2013-04-02 10:55:00
7:15 AM,60.8,60.8,100,30.05,0.5,Calm,Calm,-,N/A,,Mostly Cloudy,0,2013-04-02 11:15:00
7:35 AM,59.0,59.0,100,30.06,0.2,Calm,Calm,-,N/A,,Mostly Cloudy,0,2013-04-02 11:35:00
7:55 AM,59.0,59.0,100,30.07,0.2,Calm,Calm,-,N/A,,Overcast,0,2013-04-02 11:55:00
8:15 AM,60.8,60.8,100,30.08,1.8,WNW,3.5,-,0.01,,Scattered Clouds,290,2013-04-02 12:15:00
8:35 AM,62.6,62.6,100,30.09,5.0,Calm,Calm,-,0.01,,Clear,0,2013-04-02 12:35:00
9:15 AM,66.2,64.4,94,30.10,7.0,NW,9.2,-,N/A,,Clear,310,2013-04-02 13:15:00
9:35 AM,68.0,64.4,88,30.10,7.0,NW,8.1,-,N/A,,Clear,320,2013-04-02 13:35:00
10:15 AM,71.6,62.6,73,30.10,10.0,NW,4.6,-,N/A,,Clear,320,2013-04-02 14:15:00
10:35 AM,73.4,62.6,69,30.10,10.0,NNW,6.9,-,N/A,,Clear,340,2013-04-02 14:35:00
10:55 AM,75.2,62.6,65,30.10,10.0,WNW,8.1,-,N/A,,Clear,300,2013-04-02 14:55:00
11:15 AM,77.0,60.8,57,30.10,10.0,NW,5.8,-,N/A,,Clear,310,2013-04-02 15:15:00
11:35 AM,78.8,59.0,51,30.10,10.0,NNW,3.5,-,N/A,,Clear,330,2013-04-02 15:35:00
11:55 AM,78.8,59.0,51,30.09,10.0,NW,8.1,-,N/A,,Clear,310,2013-04-02 15:55:00
12:15 PM,80.6,59.0,48,30.09,10.0,West,3.5,-,N/A,,Clear,280,2013-04-02 16:15:00
12:35 PM,80.6,59.0,48,30.09,10.0,WNW,6.9,-,N/A,,Clear,300,2013-04-02 16:35:00
1:15 PM,82.4,59.0,45,30.07,10.0,NW,5.8,-,N/A,,Clear,320,2013-04-02 17:15:00
1:35 PM,82.4,59.0,45,30.07,10.0,WNW,5.8,-,N/A,,Clear,290,2013-04-02 17:35:00
1:55 PM,82.4,59.0,45,30.07,10.0,West,3.5,-,N/A,,Clear,260,2013-04-02 17:55:00
2:15 PM,84.2,59.0,42,30.06,10.0,NW,6.9,16.1,N/A,,Clear,320,2013-04-02 18:15:00
2:35 PM,84.2,59.0,42,30.05,10.0,WNW,5.8,-,N/A,,Scattered Clouds,300,2013-04-02 18:35:00
2:55 PM,82.4,57.2,42,30.04,10.0,NE,4.6,-,N/A,,Scattered Clouds,50,2013-04-02 18:55:00
3:15 PM,84.2,59.0,42,30.04,10.0,ENE,4.6,-,N/A,,Mostly Cloudy,60,2013-04-02 19:15:00
3:35 PM,86.0,59.0,40,30.04,10.0,North,3.5,-,N/A,,Mostly Cloudy,10,2013-04-02 19:35:00
3:55 PM,82.4,59.0,45,30.03,10.0,Calm,Calm,-,N/A,,Scattered Clouds,0,2013-04-02 19:55:00
4:15 PM,84.2,59.0,42,30.02,10.0,North,5.8,-,N/A,,Scattered Clouds,350,2013-04-02 20:15:00
4:35 PM,84.2,59.0,42,30.02,10.0,ENE,9.2,16.1,N/A,,Scattered Clouds,70,2013-04-02 20:35:00
4:55 PM,82.4,57.2,42,30.02,10.0,East,10.4,-,N/A,,Scattered Clouds,80,2013-04-02 20:55:00
5:15 PM,84.2,59.0,42,30.03,10.0,East,6.9,-,N/A,,Mostly Cloudy,90,2013-04-02 21:15:00
5:35 PM,80.6,59.0,48,30.03,10.0,ENE,9.2,-,N/A,,Scattered Clouds,60,2013-04-02 21:35:00
5:55 PM,80.6,59.0,48,30.04,10.0,East,8.1,-,N/A,,Clear,80,2013-04-02 21:55:00
6:15 PM,80.6,59.0,48,30.04,10.0,ENE,9.2,-,N/A,,Clear,70,2013-04-02 22:15:00
6:35 PM,78.8,59.0,51,30.04,10.0,ENE,9.2,-,N/A,,Clear,60,2013-04-02 22:35:00
6:55 PM,78.8,59.0,51,30.04,10.0,ENE,9.2,-,N/A,,Clear,60,2013-04-02 22:55:00
7:15 PM,77.0,59.0,54,30.04,10.0,ENE,10.4,-,N/A,,Clear,60,2013-04-02 23:15:00
7:35 PM,75.2,59.0,57,30.05,10.0,ENE,8.1,-,N/A,,Clear,60,2013-04-02 23:35:00
7:55 PM,73.4,59.0,61,30.05,10.0,ENE,6.9,-,N/A,,Clear,60,2013-04-02 23:55:00
8:15 PM,71.6,59.0,64,30.06,10.0,ENE,5.8,-,N/A,,Clear,60,2013-04-03 00:15:00
8:35 PM,71.6,60.8,69,30.06,10.0,ENE,3.5,-,N/A,,Clear,70,2013-04-03 00:35:00
8:55 PM,69.8,62.6,78,30.06,10.0,ENE,3.5,-,N/A,,Clear,60,2013-04-03 00:55:00
9:35 PM,68.0,62.6,83,30.07,10.0,East,3.5,-,N/A,,Clear,80,2013-04-03 01:35:00
9:55 PM,68.0,62.6,83,30.08,10.0,NE,3.5,-,N/A,,Clear,50,2013-04-03 01:55:00
10:15 PM,66.2,64.4,94,30.08,10.0,Calm,Calm,-,N/A,,Clear,0,2013-04-03 02:15:00
10:35 PM,66.2,64.4,94,30.09,10.0,Calm,Calm,-,N/A,,Clear,0,2013-04-03 02:35:00
10:55 PM,66.2,64.4,94,30.10,10.0,Calm,Calm,-,N/A,,Clear,0,2013-04-03 02:55:00
11:15 PM,64.4,64.4,100,30.09,7.0,Calm,Calm,-,N/A,,Clear,0,2013-04-03 03:15:00
11:35 PM,64.4,64.4,100,30.09,7.0,Calm,Calm,-,N/A,,Clear,0,2013-04-03 03:35:00
11:55 PM,64.4,62.6,94,30.09,2.5,Calm,Calm,-,N/A,,Clear,0,2013-04-03 03:55:00